sat.trackr.live / text

‹ back to catalog

STARLINK-31693

NORAD 59441 · 2024-065W

PAYLOAD ACTIVE UNKNOWN

§ Identity

Operator
Country
US
Launch date
2024-04-07
Launch site
AFWTR
Launch vehicle
Mass (kg)
RCS (m²)

Purposes: comms

External: N2YO · Heavens-Above · Gunter

§ Orbital elements

Epoch: 2026-05-24T17:54:32.925024Z

Period
94.11 min
Inclination
53.1612°
Eccentricity
0.0001198
Mean motion
15.30200045 rev/d
Perigee alt
474.4 km
Apogee alt
476.0 km
Semi-major
6,853.4 km
B*
-3.3660e-5
RAAN
288.4197°
Arg perigee
87.6772°
Mean anomaly
272.4366°
Rev number
12,057

§ Raw data

STARLINK-316931 59441U 24065W   26144.74621441 -.00001356  00000+0 -33660-4 0  99942 59441  53.1612 288.4197 0001198  87.6772 272.4366 15.30200045120573

JSON: /api/v1/satellites/59441 · /tle

For live sub-satellite position, see the globe view (requires WebGL).

§ Visibility from observer

Set your observer location to see the next 7 days of passes ≥ 10°. The values pass through the URL so the page stays shareable.

No JS? Fill the form by hand. The geolocation button needs JavaScript.